Regional Weather Roundup
Issued by NWS

Home | Current Version | Previous Version | Graphics & Text | Print | Product List | Glossary On
Versions: 1 2 3 4 5 6 7 8 9 10 11 12 13 14 15 16 17 18 19 20 21 22 23 24 25 26 27 28 29 30 31 32 33 34 35 36 37 38 39 40 41 42 43 44 45 46 47 48 49 50
000
ASUS43 KLSX 242210
RWRMO

WEATHER SUMMARY FOR MISSOURI
NATIONAL WEATHER SERVICE SPRINGFIELD MO
400 PM CST FRI FEB 24 2017

NOTE: "FAIR" INDICATES FEW OR NO CLOUDS BELOW 12,000 FEET WITH NO
       SIGNIFICANT WEATHER AND/OR OBSTRUCTIONS TO VISIBILITY.
       CURRENT SKY AND/OR WEATHER CONDITIONS ARE NOT AVAILABLE FOR
       CHILLICOTHE AND FARMINGTON.

MOZ001>031-035>038-043-044-053-054-242300-
...NORTHERN AND WESTERN MISSOURI...

CITY           SKY/WX    TMP DP  RH WIND       PRES   REMARKS
KANSAS CTY INT FLURRIES  31  23  72 NW15G25   29.81R WCI  20
KANSAS C DTWN  CLOUDY    34  23  64 NW14G23   29.83R WCI  25
LEE`S SUMMIT   CLOUDY    33  25  72 NW20      29.81R WCI  21
ST JOSEPH      LGT SNOW  29  26  89 NW24G30   29.85R FOG     WCI  15
CHILLICOTHE      N/A     32  30  92 NW12G18   29.76R WCI  23
KIRKSVILLE     CLOUDY    36  34  92 NW10      29.67R FOG     WCI  28

$$
MOZ066>068-077>081-088>096-101>105-242300-
...SOUTHWEST MISSOURI...

CITY           SKY/WX    TMP DP  RH WIND       PRES   REMARKS
SPRINGFIELD    MOSUNNY   48  27  44 W16G24    29.76R
JOPLIN         MOSUNNY   44  25  47 W20G32    29.83R
BRANSON        MOSUNNY   52  28  40 NW15G23   29.76R

$$
MOZ032>034-039>042-045>050-055>058-069>072-242300-
...CENTRAL MISSOURI...

CITY           SKY/WX    TMP DP  RH WIND       PRES   REMARKS
COLUMBIA       PTSUNNY   46  32  58 W18G29    29.68S
JEFFERSON CITY MOSUNNY   48  30  49 W15G29    29.70R
ROLLA          LGT RAIN  47  32  56 W20G28    29.69R
SEDALIA        CLOUDY    43  31  62 W15G22    29.74R
WHITEMAN AFB   CLOUDY    41  28  59 W21G31    29.74R
WARRENSBURG    CLOUDY    37  28  70 W15G23    29.79R WCI  28
OSAGE BEACH    PTSUNNY   47  29  49 W12G18    29.73S

$$
MOZ051-052-059>065-242300-
...EAST CENTRAL MISSOURI...

CITY           SKY/WX    TMP DP  RH WIND       PRES   REMARKS
ST LOUIS INTL  MOSUNNY   57  38  48 W18G24    29.63S
SPIRIT OF STL  MOSUNNY   55  36  48 W17G25    29.63R
ST CHARLES     PTSUNNY   53  39  59 W21       29.63R

$$
MOZ072>076-082>087-097>100-106>115-242300-
...SOUTH CENTRAL AND SOUTHEAST MISSOURI...

CITY           SKY/WX    TMP DP  RH WIND       PRES   REMARKS
CAPE GIRARDEAU CLOUDY    65  55  70 SW17      29.60S
FARMINGTON     SUNNY     57  36  45 W17G24    29.66R
POPLAR BLUFF   CLOUDY    63  47  55 W12       29.64R
WEST PLAINS    SUNNY     52  32  46 W15G23    29.73R

$$



USA.gov is the U.S. government's official web portal to all federal, state and local government web resources and services.